User: anonymous   Login
Location: Unspecified
(0.0000°N, 0.0000°E)
Time: 10:39:37
(UTC+00:00)
Language:

Envisat - Orbit

View from above orbital plane
View from above orbital plane
View from above satellite
View from above satellite

Ground track
Ground track

The orbit data is extracted from the following two-line orbital elements,

1 27386U 02009A   17179.93764554 -.00000002 +00000-0 +13177-4 0  9991
2 27386 098.2297 224.7252 0001116 089.8913 270.2395 14.37898036802766
Epoch (UTC): 28 June 2017 22:30:12
Eccentricity: 0.0001116
inclination: 98.2297°
perigee height: 764 km
apogee height: 766 km
right ascension of ascending node: 224.7252°
argument of perigee: 89.8913°
revolutions per day: 14.37898036
mean anomaly at epoch: 270.2395°
orbit number at epoch: 80276

The dashed part of the orbit path shows where the satellite is in the earth's shadow,  

DLR